FW7782 Weather Reports


Display with metric or nautical units.
time (UTC)temp
F
wind
direction
speed
MPH
gust
MPH
rain 1hr
in
rain 24hr
in
rain mn
in
humidity
%
barometer
mb
20260504050110 61 44 5.0 7.0 0.00 0.11 0.11 97 1012.6
20260504044554 62 24 2.0 6.0 0.00 0.11 0.11 97 1012.4
20260504043059 61 28 3.0 8.0 0.00 0.11 0.11 97 1012.3
20260504041551 61 41 4.0 8.0 0.00 0.11 0.11 97 1012.4
20260504040057 61 63 5.0 9.0 0.00 0.11 0.11 97 1012.5
20260504034555 61 24 5.0 10.0 0.00 0.11 0.11 97 1012.5
20260504033100 61 29 4.0 9.0 0.00 0.11 0.11 97 1012.6
20260504031552 61 27 4.0 7.0 0.00 0.11 0.11 96 1012.8
20260504030051 61 36 4.0 8.0 0.00 0.11 0.11 96 1012.9
20260504024558 62 44 6.0 9.0 0.00 0.11 0.11 96 1012.9
20260504023055 62 21 5.0 7.0 0.01 0.11 0.11 96 1013.0
20260504021557 63 20 4.0 6.0 0.07 0.11 0.11 96 1013.0
20260504020103 63 58 2.0 4.0 0.09 0.11 0.11 96 1013.1
20260504014553 63 183 0.0 3.0 0.10 0.11 0.11 96 1013.1
20260504013050 63 0 0.0 0.0 0.09 0.09 0.09 96 1013.2
20260504011550 63 0 0.0 4.0 0.03 0.03 0.03 95 1013.2
20260504010047 64 78 0.0 3.0 0.01 0.01 0.01 95 1013.2
20260504004551 64 0 1.0 2.0 0.00 0.00 0.00 95 1013.4
20260504003049 64 0 0.0 0.0 0.00 0.00 0.00 95 1013.3
20260504001553 64 0 0.0 4.0 0.00 0.00 0.00 94 1013.5
20260504000056 64 41 2.0 4.0 0.00 0.00 0.00 94 1013.3
20260503234549 64 58 2.0 6.0 0.00 0.00 0.00 93 1013.5
20260503233044 64 53 4.0 6.0 0.00 0.00 0.00 92 1013.6
20260503231552 64 27 1.0 4.0 0.00 0.00 0.00 92 1013.8
20260503224557 64 41 3.0 6.0 0.00 0.00 0.00 92 1013.8
20260503223048 64 32 2.0 5.0 0.00 0.00 0.00 91 1014.0
20260503221556 65 31 3.0 6.0 0.00 0.00 0.00 91 1014.1
20260503220048 65 59 2.0 4.0 0.00 0.00 0.00 90 1014.1
20260503214551 65 85 3.0 6.0 0.00 0.00 0.00 90 1014.3
20260503213059 65 64 4.0 6.0 0.00 0.00 0.00 90 1014.4
20260503211609 65 94 3.0 8.0 0.00 0.00 0.00 91 1014.4
20260503210053 65 70 3.0 7.0 0.00 0.00 0.00 91 1014.2
20260503204558 65 84 4.0 9.0 0.00 0.00 0.00 90 1014.3
20260503203052 65 84 3.0 7.0 0.00 0.00 0.00 90 1014.1
20260503201552 65 74 2.0 8.0 0.00 0.00 0.00 90 1013.9
20260503200106 64 75 5.0 8.0 0.00 0.00 0.00 90 1013.8
20260503194601 65 63 4.0 7.0 0.00 0.00 0.00 90 1013.4
20260503193101 64 86 3.0 7.0 0.00 0.00 0.00 90 1013.2
20260503191549 65 99 3.0 9.0 0.00 0.00 0.00 89 1012.7
20260503190051 65 71 4.0 9.0 0.00 0.00 0.00 89 1012.6
20260503184601 65 95 6.0 10.0 0.00 0.00 0.00 88 1012.7
20260503183050 65 121 5.0 11.0 0.00 0.00 0.00 87 1012.5
20260503181609 65 72 6.0 12.0 0.00 0.00 0.00 87 1012.4
20260503180111 65 75 7.0 11.0 0.00 0.00 0.00 86 1012.4
20260503174600 65 89 6.0 12.0 0.00 0.00 0.00 85 1012.4
20260503173059 66 89 5.0 11.0 0.00 0.00 0.00 86 1012.2
20260503171554 66 88 6.0 12.0 0.00 0.00 0.00 84 1012.0
20260503081553 64 132 5.0 9.0 0.00 0.00 0.00 87 1015.8
20260503080105 64 110 4.0 10.0 0.00 0.00 0.00 88 1016.0